Darstellungsparameter: Aktuell verwendete Einstellungen:
Skalierung der Graphiken ... ?
xyx+y,   Skalierungsfaktor:      Skalierung: Modus: x, Faktor: 1
Darstellungszeitraum ... ?
Vom - - bis: - -   Zeitraum: 02.07.2020 - 31.07.2020
Min/Max/Avg-Anzeige ... ?
Zeige MMA aktuell
Zeige MMA Monat
Zeige MMA alles
Zeige --A aktuell
Zeige --A Monat
Zeige --A alles
Keine MMA-Anzeige
MMA:
Average (ber die Originaldaten)
MMA-Basis: 23.02.2003 - 03.08.2020
Quicknavigation für Darstellung... ?
Tage:      1T, 2T, 3T, 5T -1T -2T -3T -5T +1T +2T +3T +5T
Wochen: 1W, 2W, 3W -1W -2W -3W +1W +2W +3W
Monate: 1M, 3M, 6M -1M -3M -6M +1M +3M +6M
Jahre:    1J, 3J, 5J, 10J -1J -3J -5J -10J +1J +3J +5J +10J
Nutze für die Darstellung ... ?
Originaldaten oder ...
Mittelwerte Minima Maxima auf...
Stundenbasis Tagesbasis Wochenbasis
Monatsbasis Jahresbasis      Datenbasis: Mittelwerte auf Stundenbasis
Darstellen als:
Statistik (Auto) Statistik J:M      Darstellung:
Zur Graphik,    zurück zur Übersicht aller Sensoren.
 
Tabellarische Datenbersicht: ?
 
Sensor: Nr:Datum:Temp:Abs-Feuchte:Windchill:Wind:
Aussen-T/F 1 02-07-2020 00:00:00 17.83333 C 14.09 g/m*3 17.83 C 0.26667 km/h
2 02-07-2020 01:00:00 17.71667 C 14.17 g/m*3 17.72 C 0 km/h
3 02-07-2020 02:00:00 17.46667 C 14.02 g/m*3 17.47 C 0.66667 km/h
4 02-07-2020 03:00:00 16.525 C 13.31 g/m*3 16.52 C 3.6 km/h
5 02-07-2020 04:00:00 15.71667 C 12.72 g/m*3 15.72 C 2.8 km/h
6 02-07-2020 05:00:00 15.05 C 12.24 g/m*3 15.05 C 0.13333 km/h
7 02-07-2020 06:00:00 15.575 C 12.77 g/m*3 15.58 C 0 km/h
8 02-07-2020 07:00:00 16.475 C 13.56 g/m*3 16.48 C 0 km/h
9 02-07-2020 08:00:00 16.56667 C 13.59 g/m*3 16.57 C 0 km/h
10 02-07-2020 09:00:00 17.98333 C 14.88 g/m*3 17.98 C 1.2 km/h
11 02-07-2020 10:00:00 18.85833 C 15.16 g/m*3 18.86 C 5.625 km/h
12 02-07-2020 11:00:00 21.075 C 14.03 g/m*3 21.08 C 12.89167 km/h
13 02-07-2020 12:00:00 21.9 C 12.41 g/m*3 21.9 C 14.63333 km/h
14 02-07-2020 13:00:00 22.575 C 12.39 g/m*3 22.58 C 14.9 km/h
15 02-07-2020 14:00:00 20.58333 C 13.26 g/m*3 20.58 C 4.29167 km/h
16 02-07-2020 15:00:00 21.075 C 12.85 g/m*3 21.08 C 8.6 km/h
17 02-07-2020 16:00:00 21.825 C 12.99 g/m*3 21.83 C 2.93333 km/h
18 02-07-2020 17:00:00 22.85833 C 12.22 g/m*3 22.86 C 13.81667 km/h
19 02-07-2020 18:00:00 21.40833 C 11.94 g/m*3 21.41 C 14.63333 km/h
20 02-07-2020 19:00:00 19.16667 C 11.97 g/m*3 19.17 C 8.2 km/h
21 02-07-2020 20:00:00 19.13333 C 11.72 g/m*3 19.13 C 6.30833 km/h
22 02-07-2020 21:00:00 18.85833 C 11.72 g/m*3 18.86 C 4.15 km/h
23 02-07-2020 22:00:00 17.43333 C 11.74 g/m*3 17.43 C 4.40833 km/h
24 02-07-2020 23:00:00 15.89167 C 11.29 g/m*3 15.89 C 3.46667 km/h
25 03-07-2020 00:00:00 14.88333 C 11.08 g/m*3 14.88 C 2.13333 km/h
Sensor: Nr:Datum:Temp:Abs-Feuchte:Windchill:Wind:
Aussen-T/F 26 03-07-2020 01:00:00 14.03333 C 10.79 g/m*3 14.03 C 1.73333 km/h
27 03-07-2020 02:00:00 13.31667 C 10.47 g/m*3 13.32 C 0.4 km/h
28 03-07-2020 03:00:00 12.45 C 10.11 g/m*3 12.45 C 0.26667 km/h
29 03-07-2020 04:00:00 11.875 C 9.86 g/m*3 11.88 C 1.33333 km/h
30 03-07-2020 05:00:00 11.39167 C 9.64 g/m*3 11.39 C 0.66667 km/h
31 03-07-2020 06:00:00 11.33333 C 9.68 g/m*3 11.33 C 0.26667 km/h
32 03-07-2020 07:00:00 11.79167 C 10.02 g/m*3 11.79 C 1.2 km/h
33 03-07-2020 08:00:00 13.74167 C 10.52 g/m*3 13.74 C 5.36667 km/h
34 03-07-2020 09:00:00 15.85 C 10.68 g/m*3 15.85 C 5.35 km/h
35 03-07-2020 10:00:00 18.13333 C 11.29 g/m*3 18.13 C 6.84167 km/h
36 03-07-2020 11:00:00 19.875 C 11.37 g/m*3 19.88 C 8.73333 km/h
37 03-07-2020 12:00:00 20.14167 C 11.17 g/m*3 20.14 C 7.78333 km/h
38 03-07-2020 13:00:00 21.05833 C 11.06 g/m*3 21.06 C 7.65833 km/h
39 03-07-2020 14:00:00 22.25 C 10.91 g/m*3 22.25 C 10.475 km/h
40 03-07-2020 15:00:00 23.49167 C 10.9 g/m*3 23.49 C 13.29167 km/h
41 03-07-2020 16:00:00 24.025 C 10.46 g/m*3 24.03 C 12.89167 km/h
42 03-07-2020 17:00:00 24.09167 C 10.46 g/m*3 24.09 C 13.16667 km/h
43 03-07-2020 18:00:00 23.98333 C 10.38 g/m*3 23.98 C 10.20833 km/h
44 03-07-2020 19:00:00 23.86667 C 10.04 g/m*3 23.87 C 11.425 km/h
45 03-07-2020 20:00:00 22.20833 C 10 g/m*3 22.21 C 10.86667 km/h
46 03-07-2020 21:00:00 19.60833 C 10.81 g/m*3 19.61 C 4.26667 km/h
47 03-07-2020 22:00:00 16.91667 C 10.57 g/m*3 16.92 C 3.86667 km/h
48 03-07-2020 23:00:00 15.43333 C 10.41 g/m*3 15.43 C 1.46667 km/h
49 04-07-2020 00:00:00 14.35833 C 10.25 g/m*3 14.36 C 0 km/h
50 04-07-2020 01:00:00 13.55833 C 10.08 g/m*3 13.56 C 1.86667 km/h
Sensor: Nr:Datum:Temp:Abs-Feuchte:Windchill:Wind:
Aussen-T/F 51 04-07-2020 02:00:00 13.24167 C 9.97 g/m*3 13.24 C 2.41667 km/h
52 04-07-2020 03:00:00 12.84167 C 9.84 g/m*3 12.84 C 1.46667 km/h
53 04-07-2020 04:00:00 12.53333 C 9.77 g/m*3 12.53 C 2.94167 km/h
54 04-07-2020 05:00:00 12.65833 C 9.72 g/m*3 12.66 C 1.60833 km/h
55 04-07-2020 06:00:00 12.80833 C 10 g/m*3 12.81 C 2 km/h
56 04-07-2020 07:00:00 14.11667 C 10.4 g/m*3 14.12 C 0.26667 km/h
57 04-07-2020 08:00:00 15.375 C 10.8 g/m*3 15.38 C 0 km/h
58 04-07-2020 09:00:00 17.14167 C 10.93 g/m*3 17.14 C 8.05833 km/h
59 04-07-2020 10:00:00 20.19167 C 10.94 g/m*3 20.19 C 13.16667 km/h
60 04-07-2020 11:00:00 21.70833 C 10.81 g/m*3 21.71 C 18.36667 km/h
61 04-07-2020 12:00:00 22.21667 C 10.96 g/m*3 22.22 C 17.43333 km/h
62 04-07-2020 13:00:00 22.39167 C 11.02 g/m*3 22.39 C 17.85 km/h
63 04-07-2020 14:00:00 23.1 C 10.89 g/m*3 23.1 C 17.04167 km/h
64 04-07-2020 15:00:00 23.31667 C 10.52 g/m*3 23.32 C 16.1 km/h
65 04-07-2020 16:00:00 24.075 C 11.18 g/m*3 24.08 C 13.56667 km/h
66 04-07-2020 17:00:00 24.90833 C 11.47 g/m*3 24.91 C 14.23333 km/h
67 04-07-2020 18:00:00 24.61667 C 11.79 g/m*3 24.62 C 15.3 km/h
68 04-07-2020 19:00:00 24.78333 C 12.2 g/m*3 24.78 C 14.89167 km/h
69 04-07-2020 20:00:00 23.03333 C 11.77 g/m*3 23.03 C 13.95833 km/h
70 04-07-2020 21:00:00 22.25833 C 12.1 g/m*3 22.26 C 10.09167 km/h
71 04-07-2020 22:00:00 21.71667 C 12.33 g/m*3 21.72 C 6.04167 km/h
72 04-07-2020 23:00:00 21.40833 C 12.77 g/m*3 21.41 C 8.19167 km/h
73 05-07-2020 00:00:00 21.31667 C 13.5 g/m*3 21.32 C 9.125 km/h
74 05-07-2020 01:00:00 21.11667 C 13.76 g/m*3 21.12 C 9.675 km/h
75 05-07-2020 02:00:00 20.99167 C 13.87 g/m*3 20.99 C 8.31667 km/h
Sensor: Nr:Datum:Temp:Abs-Feuchte:Windchill:Wind:
Aussen-T/F 76 05-07-2020 03:00:00 20.975 C 13.72 g/m*3 20.98 C 10.34167 km/h
77 05-07-2020 04:00:00 21.05833 C 13.86 g/m*3 21.06 C 10.19167 km/h
78 05-07-2020 05:00:00 21.1 C 13.97 g/m*3 21.1 C 13.16667 km/h
79 05-07-2020 06:00:00 20.93333 C 13.94 g/m*3 20.93 C 12.36667 km/h
80 05-07-2020 07:00:00 21.05 C 14.22 g/m*3 21.05 C 17.84167 km/h
81 05-07-2020 08:00:00 21.39167 C 14.57 g/m*3 21.39 C 16.23333 km/h
82 05-07-2020 09:00:00 22 C 14.83 g/m*3 22 C 15.575 km/h
83 05-07-2020 10:00:00 22.35833 C 14.73 g/m*3 22.36 C 19.70833 km/h
84 05-07-2020 11:00:00 23.04167 C 14.73 g/m*3 23.04 C 19.70833 km/h
85 05-07-2020 12:00:00 23.46667 C 14.92 g/m*3 23.47 C 19.3 km/h
86 05-07-2020 13:00:00 23.93333 C 15.03 g/m*3 23.93 C 18.9 km/h
87 05-07-2020 14:00:00 25.60833 C 14.63 g/m*3 25.61 C 18.1 km/h
88 05-07-2020 15:00:00 25.425 C 14.36 g/m*3 25.43 C 15.16667 km/h
89 05-07-2020 16:00:00 25.925 C 14.79 g/m*3 25.93 C 14.76667 km/h
90 05-07-2020 17:00:00 25.50833 C 14.67 g/m*3 25.51 C 15.96667 km/h
91 05-07-2020 18:00:00 25.63333 C 14.89 g/m*3 25.63 C 20.375 km/h
92 05-07-2020 19:00:00 25.525 C 14.82 g/m*3 25.53 C 17.70833 km/h
93 05-07-2020 20:00:00 24.20833 C 14.66 g/m*3 24.21 C 15.29167 km/h
94 05-07-2020 21:00:00 22.58333 C 14.55 g/m*3 22.58 C 11.95833 km/h
95 05-07-2020 22:00:00 21.45833 C 14.31 g/m*3 21.46 C 11.56667 km/h
96 05-07-2020 23:00:00 20.65 C 14.09 g/m*3 20.65 C 5.08333 km/h
97 06-07-2020 00:00:00 19.525 C 13.95 g/m*3 19.52 C 3.20833 km/h
98 06-07-2020 01:00:00 19.36667 C 13.36 g/m*3 19.37 C 9.39167 km/h
99 06-07-2020 02:00:00 18.96667 C 11.59 g/m*3 18.97 C 10.36667 km/h
100 06-07-2020 03:00:00 17.1 C 8.93 g/m*3 17.1 C 16.225 km/h
Sensor: Nr:Datum:Temp:Abs-Feuchte:Windchill:Wind:
Aussen-T/F 101 06-07-2020 04:00:00 14.90833 C 8.67 g/m*3 14.91 C 7.24167 km/h
102 06-07-2020 05:00:00 13.55833 C 8.64 g/m*3 13.56 C 3.89167 km/h
103 06-07-2020 06:00:00 12.95833 C 8.75 g/m*3 12.96 C 4.675 km/h
104 06-07-2020 07:00:00 14.05 C 9.07 g/m*3 14.05 C 8.6 km/h
105 06-07-2020 08:00:00 15.13333 C 8.76 g/m*3 15.13 C 13.83333 km/h
106 06-07-2020 09:00:00 15.84167 C 8.4 g/m*3 15.84 C 14.63333 km/h
107 06-07-2020 10:00:00 17.025 C 8.38 g/m*3 17.02 C 14.1 km/h
108 06-07-2020 11:00:00 18.15833 C 8.15 g/m*3 18.16 C 18.1 km/h
109 06-07-2020 12:00:00 18.80833 C 7.96 g/m*3 18.81 C 17.30833 km/h
110 06-07-2020 13:00:00 19.275 C 7.94 g/m*3 19.27 C 15.3 km/h
111 06-07-2020 14:00:00 19.925 C 7.71 g/m*3 19.93 C 16.9 km/h
112 06-07-2020 15:00:00 17.58333 C 9.45 g/m*3 17.58 C 12.89167 km/h
113 06-07-2020 16:00:00 15.88333 C 10.53 g/m*3 15.88 C 3.75 km/h
114 06-07-2020 17:00:00 17.59167 C 9.24 g/m*3 17.59 C 11.00833 km/h
115 06-07-2020 18:00:00 19.46667 C 9.6 g/m*3 19.47 C 13.85 km/h
116 06-07-2020 19:00:00 17 C 9.22 g/m*3 17 C 5.24167 km/h
117 06-07-2020 20:00:00 17.26667 C 9.46 g/m*3 17.27 C 2.40833 km/h
118 06-07-2020 21:00:00 16.63333 C 9.44 g/m*3 16.63 C 1.2 km/h
119 06-07-2020 22:00:00 14.08333 C 9.08 g/m*3 14.08 C 1.86667 km/h
120 06-07-2020 23:00:00 13.00833 C 8.94 g/m*3 13.01 C 3.2 km/h
121 07-07-2020 00:00:00 11.95833 C 8.87 g/m*3 11.96 C 1.46667 km/h
122 07-07-2020 01:00:00 11.05833 C 8.73 g/m*3 11.06 C 0.93333 km/h
123 07-07-2020 02:00:00 10.425 C 8.62 g/m*3 10.43 C 1.46667 km/h
124 07-07-2020 03:00:00 10.025 C 8.58 g/m*3 10.03 C 1.33333 km/h
125 07-07-2020 04:00:00 9.575 C 8.41 g/m*3 9.57 C 1.33333 km/h
Sensor: Nr:Datum:Temp:Abs-Feuchte:Windchill:Wind:
Aussen-T/F 126 07-07-2020 05:00:00 8.89167 C 8.1 g/m*3 8.89 C 1.6 km/h
127 07-07-2020 06:00:00 8.61667 C 8.03 g/m*3 8.62 C 1.06667 km/h
128 07-07-2020 07:00:00 9.35833 C 8.45 g/m*3 9.36 C 4.26667 km/h
129 07-07-2020 08:00:00 10.475 C 9.01 g/m*3 10.48 C 1.46667 km/h
130 07-07-2020 09:00:00 12.4 C 9.92 g/m*3 12.4 C 0.8 km/h
131 07-07-2020 10:00:00 15.875 C 9.66 g/m*3 15.88 C 3.73333 km/h
132 07-07-2020 11:00:00 18.275 C 8.57 g/m*3 18.27 C 5.90833 km/h
133 07-07-2020 12:00:00 19.65833 C 8.13 g/m*3 19.66 C 7.79167 km/h
134 07-07-2020 13:00:00 19.91667 C 7.98 g/m*3 19.92 C 6.04167 km/h
135 07-07-2020 14:00:00 20.50833 C 8.43 g/m*3 20.51 C 7.65 km/h
136 07-07-2020 15:00:00 21.875 C 8.77 g/m*3 21.88 C 11.025 km/h
137 07-07-2020 16:00:00 23.36667 C 8.8 g/m*3 23.37 C 11.16667 km/h
138 07-07-2020 17:00:00 22.76667 C 8.64 g/m*3 22.77 C 10.20833 km/h
139 07-07-2020 18:00:00 23.8 C 8.71 g/m*3 23.8 C 9.00833 km/h
140 07-07-2020 19:00:00 22.08333 C 8.53 g/m*3 22.08 C 8.06667 km/h
141 07-07-2020 20:00:00 21.1 C 8.94 g/m*3 21.1 C 4.00833 km/h
142 07-07-2020 21:00:00 19.76667 C 9.65 g/m*3 19.77 C 1.06667 km/h
143 07-07-2020 22:00:00 17.6 C 9.65 g/m*3 17.6 C 3.06667 km/h
144 07-07-2020 23:00:00 16.975 C 9.78 g/m*3 16.98 C 4 km/h
145 08-07-2020 00:00:00 16.31667 C 9.99 g/m*3 16.32 C 0.66667 km/h
146 08-07-2020 01:00:00 15.8 C 10.03 g/m*3 15.8 C 0.13333 km/h
147 08-07-2020 02:00:00 15.9 C 9.91 g/m*3 15.9 C 0.4 km/h
148 08-07-2020 03:00:00 16.31667 C 9.69 g/m*3 16.32 C 2.14167 km/h
149 08-07-2020 04:00:00 16.40833 C 9.72 g/m*3 16.41 C 1.06667 km/h
150 08-07-2020 05:00:00 15.83333 C 10.18 g/m*3 15.83 C 0 km/h
Sensor: Nr:Datum:Temp:Abs-Feuchte:Windchill:Wind:
Aussen-T/F 151 08-07-2020 06:00:00 15.38333 C 10.52 g/m*3 15.38 C 0.13333 km/h
152 08-07-2020 07:00:00 15.05 C 11.1 g/m*3 15.05 C 0.26667 km/h
153 08-07-2020 08:00:00 14.55833 C 10.13 g/m*3 14.56 C 6.16667 km/h
154 08-07-2020 09:00:00 13.96667 C 10.07 g/m*3 13.97 C 4.40833 km/h
155 08-07-2020 10:00:00 13.81667 C 10.61 g/m*3 13.82 C 2.4 km/h
156 08-07-2020 11:00:00 14.05 C 11.16 g/m*3 14.05 C 3.74167 km/h
157 08-07-2020 12:00:00 14.7 C 11.57 g/m*3 14.7 C 2.66667 km/h
158 08-07-2020 13:00:00 15.11667 C 11.88 g/m*3 15.12 C 6.025 km/h
159 08-07-2020 14:00:00 15.55 C 12.35 g/m*3 15.55 C 4.13333 km/h
160 08-07-2020 15:00:00 16.13333 C 12.86 g/m*3 16.13 C 5.475 km/h
161 08-07-2020 16:00:00 16.55 C 13.23 g/m*3 16.55 C 0.8 km/h
162 08-07-2020 17:00:00 17.30833 C 13.73 g/m*3 17.31 C 5.36667 km/h
163 08-07-2020 18:00:00 17.90833 C 13.84 g/m*3 17.91 C 2.53333 km/h
164 08-07-2020 19:00:00 17.36667 C 13.71 g/m*3 17.37 C 0.66667 km/h
165 08-07-2020 20:00:00 17.24167 C 13.65 g/m*3 17.24 C 0 km/h
166 08-07-2020 21:00:00 16.86667 C 13.48 g/m*3 16.87 C 0 km/h
167 08-07-2020 22:00:00 16.525 C 13.28 g/m*3 16.52 C 0.93333 km/h
168 08-07-2020 23:00:00 16.36667 C 13.23 g/m*3 16.37 C 2.66667 km/h
169 09-07-2020 00:00:00 16.5 C 13.43 g/m*3 16.5 C 1.06667 km/h
170 09-07-2020 01:00:00 16.68333 C 13.63 g/m*3 16.68 C 2.93333 km/h
171 09-07-2020 02:00:00 16.75833 C 13.69 g/m*3 16.76 C 1.73333 km/h
172 09-07-2020 03:00:00 16.69167 C 13.64 g/m*3 16.69 C 2.4 km/h
173 09-07-2020 04:00:00 16.76667 C 13.7 g/m*3 16.77 C 2.54167 km/h
174 09-07-2020 05:00:00 16.84167 C 13.76 g/m*3 16.84 C 2.8 km/h
175 09-07-2020 06:00:00 17.06667 C 13.85 g/m*3 17.07 C 4.00833 km/h
Sensor: Nr:Datum:Temp:Abs-Feuchte:Windchill:Wind:
Aussen-T/F 176 09-07-2020 07:00:00 17.63333 C 13.96 g/m*3 17.63 C 6.03333 km/h
177 09-07-2020 08:00:00 18.68333 C 14.14 g/m*3 18.68 C 6.7 km/h
178 09-07-2020 09:00:00 19.7 C 14.38 g/m*3 19.7 C 9.69167 km/h
179 09-07-2020 10:00:00 20.40833 C 14.53 g/m*3 20.41 C 9.41667 km/h
180 09-07-2020 11:00:00 21.64167 C 14.8 g/m*3 21.64 C 11.425 km/h
181 09-07-2020 12:00:00 23 C 14.8 g/m*3 23 C 11.3 km/h
182 09-07-2020 13:00:00 24.51667 C 14.09 g/m*3 24.52 C 13.825 km/h
183 09-07-2020 14:00:00 26.11667 C 13.48 g/m*3 26.12 C 15.7 km/h
184 09-07-2020 15:00:00 27.08333 C 12.99 g/m*3 27.08 C 14.1 km/h
185 09-07-2020 16:00:00 28.05 C 12.52 g/m*3 28.05 C 17.56667 km/h
186 09-07-2020 17:00:00 27.83333 C 12.26 g/m*3 27.83 C 15.96667 km/h
187 09-07-2020 18:00:00 27.76667 C 12.08 g/m*3 27.77 C 12.36667 km/h
188 09-07-2020 19:00:00 27.28333 C 12.2 g/m*3 27.28 C 7.25833 km/h
189 09-07-2020 20:00:00 26.325 C 12.81 g/m*3 26.33 C 5.225 km/h
190 09-07-2020 21:00:00 23.525 C 14.14 g/m*3 23.53 C 0 km/h
191 09-07-2020 22:00:00 21.425 C 14.08 g/m*3 21.43 C 0.53333 km/h
192 09-07-2020 23:00:00 20.44167 C 13.91 g/m*3 20.44 C 0 km/h
193 10-07-2020 00:00:00 18.96667 C 13.32 g/m*3 18.97 C 0 km/h
194 10-07-2020 01:00:00 17.81667 C 12.99 g/m*3 17.82 C 0 km/h
195 10-07-2020 02:00:00 16.96667 C 12.68 g/m*3 16.97 C 0 km/h
196 10-07-2020 03:00:00 16.61667 C 12.59 g/m*3 16.62 C 0 km/h
197 10-07-2020 04:00:00 16.2 C 12.42 g/m*3 16.2 C 0 km/h
198 10-07-2020 05:00:00 16.15 C 12.47 g/m*3 16.15 C 1.20833 km/h
199 10-07-2020 06:00:00 16.33333 C 12.55 g/m*3 16.33 C 1.075 km/h
200 10-07-2020 07:00:00 17.38333 C 12.92 g/m*3 17.38 C 2.4 km/h
Sensor: Nr:Datum:Temp:Abs-Feuchte:Windchill:Wind:
Aussen-T/F 201 10-07-2020 08:00:00 19.19167 C 13.46 g/m*3 19.19 C 5.5 km/h
202 10-07-2020 09:00:00 20.26667 C 13.33 g/m*3 20.27 C 12.23333 km/h
203 10-07-2020 10:00:00 20.69167 C 12.97 g/m*3 20.69 C 14.9 km/h
204 10-07-2020 11:00:00 21.425 C 12.74 g/m*3 21.43 C 17.16667 km/h
205 10-07-2020 12:00:00 21.98333 C 12.57 g/m*3 21.98 C 16.1 km/h
206 10-07-2020 13:00:00 21.25833 C 12.15 g/m*3 21.26 C 16.5 km/h
207 10-07-2020 14:00:00 20.95833 C 12.09 g/m*3 20.96 C 15.15833 km/h
208 10-07-2020 15:00:00 19.3 C 13.19 g/m*3 19.3 C 10.075 km/h
209 10-07-2020 16:00:00 18.33333 C 13.97 g/m*3 18.33 C 5.775 km/h
210 10-07-2020 17:00:00 18.25833 C 14.31 g/m*3 18.26 C 5.89167 km/h
211 10-07-2020 18:00:00 19.3 C 12.12 g/m*3 19.3 C 14.49167 km/h
212 10-07-2020 19:00:00 19.65833 C 11.65 g/m*3 19.66 C 13.83333 km/h
213 10-07-2020 20:00:00 18.58333 C 11.3 g/m*3 18.58 C 11.825 km/h
214 10-07-2020 21:00:00 17.75 C 10.76 g/m*3 17.75 C 4.80833 km/h
215 10-07-2020 22:00:00 17.18333 C 10.59 g/m*3 17.18 C 4.54167 km/h
216 10-07-2020 23:00:00 16.63333 C 10.44 g/m*3 16.63 C 1.86667 km/h
217 11-07-2020 00:00:00 15.58333 C 10.45 g/m*3 15.58 C 0.93333 km/h
218 11-07-2020 01:00:00 14.3 C 10.06 g/m*3 14.3 C 2.53333 km/h
219 11-07-2020 02:00:00 12.725 C 9.68 g/m*3 12.73 C 2.53333 km/h
220 11-07-2020 03:00:00 11.88333 C 9.55 g/m*3 11.88 C 3.06667 km/h
221 11-07-2020 04:00:00 11.20833 C 9.25 g/m*3 11.21 C 0 km/h
222 11-07-2020 05:00:00 10.45 C 8.94 g/m*3 10.45 C 0.26667 km/h
223 11-07-2020 06:00:00 10.41667 C 9.06 g/m*3 10.42 C 0 km/h
224 11-07-2020 07:00:00 11.10833 C 9.59 g/m*3 11.11 C 0 km/h
225 11-07-2020 08:00:00 13.51667 C 10.52 g/m*3 13.52 C 3.2 km/h
Sensor: Nr:Datum:Temp:Abs-Feuchte:Windchill:Wind:
Aussen-T/F 226 11-07-2020 09:00:00 15.38333 C 10.1 g/m*3 15.38 C 5.1 km/h
227 11-07-2020 10:00:00 16.6 C 9.42 g/m*3 16.6 C 6.71667 km/h
228 11-07-2020 11:00:00 17.75 C 8.98 g/m*3 17.75 C 6.84167 km/h
229 11-07-2020 12:00:00 18.4 C 8.81 g/m*3 18.4 C 9.40833 km/h
230 11-07-2020 13:00:00 19.10833 C 8.64 g/m*3 19.11 C 8.60833 km/h
231 11-07-2020 14:00:00 19.775 C 8.51 g/m*3 19.77 C 11.15833 km/h
232 11-07-2020 15:00:00 21.2 C 7.95 g/m*3 21.2 C 11.275 km/h
233 11-07-2020 16:00:00 22.05 C 7.85 g/m*3 22.05 C 10.9 km/h
234 11-07-2020 17:00:00 22.38333 C 7.95 g/m*3 22.38 C 8.05833 km/h
235 11-07-2020 18:00:00 21.99167 C 7.86 g/m*3 21.99 C 8.45 km/h
236 11-07-2020 19:00:00 21.88333 C 8.03 g/m*3 21.88 C 8.05833 km/h
237 11-07-2020 20:00:00 21.125 C 8.16 g/m*3 21.13 C 8.31667 km/h
238 11-07-2020 21:00:00 17.93333 C 9.43 g/m*3 17.93 C 7.8 km/h
239 11-07-2020 22:00:00 16.25 C 9.56 g/m*3 16.25 C 1.74167 km/h
240 11-07-2020 23:00:00 14.75833 C 9.4 g/m*3 14.76 C 3.86667 km/h
241 12-07-2020 00:00:00 13.35 C 9.25 g/m*3 13.35 C 4.93333 km/h
242 12-07-2020 01:00:00 12.61667 C 9.27 g/m*3 12.62 C 2.53333 km/h
243 12-07-2020 02:00:00 11.95833 C 9.14 g/m*3 11.96 C 0.66667 km/h
244 12-07-2020 03:00:00 10.73333 C 8.71 g/m*3 10.73 C 0 km/h
245 12-07-2020 04:00:00 9.91667 C 8.51 g/m*3 9.92 C 0 km/h
246 12-07-2020 05:00:00 9.39167 C 8.35 g/m*3 9.39 C 0 km/h
247 12-07-2020 06:00:00 9.25 C 8.37 g/m*3 9.25 C 0 km/h
248 12-07-2020 07:00:00 9.70833 C 8.7 g/m*3 9.71 C 0 km/h
249 12-07-2020 08:00:00 10.84167 C 9.41 g/m*3 10.84 C 0 km/h
250 12-07-2020 09:00:00 12.76667 C 10.45 g/m*3 12.77 C 0.53333 km/h
Sensor: Nr:Datum:Temp:Abs-Feuchte:Windchill:Wind:
Aussen-T/F 251 12-07-2020 10:00:00 16.29167 C 10.39 g/m*3 16.29 C 3.74167 km/h
252 12-07-2020 11:00:00 19.2 C 9.7 g/m*3 19.2 C 8.33333 km/h
253 12-07-2020 12:00:00 20.18333 C 9 g/m*3 20.18 C 7.78333 km/h
254 12-07-2020 13:00:00 21.31667 C 8.4 g/m*3 21.32 C 9.275 km/h
255 12-07-2020 14:00:00 21.93333 C 8.28 g/m*3 21.93 C 10.08333 km/h
256 12-07-2020 15:00:00 23.325 C 8.08 g/m*3 23.33 C 9.54167 km/h
257 12-07-2020 16:00:00 24.5 C 8.28 g/m*3 24.5 C 12.35833 km/h
258 12-07-2020 17:00:00 24.33333 C 8.13 g/m*3 24.33 C 12.1 km/h
259 12-07-2020 18:00:00 24.475 C 8.12 g/m*3 24.48 C 10.34167 km/h
260 12-07-2020 19:00:00 22.85 C 8.42 g/m*3 22.85 C 6.84167 km/h
261 12-07-2020 20:00:00 22.41667 C 8.42 g/m*3 22.42 C 11.16667 km/h
262 12-07-2020 21:00:00 20.50833 C 8.99 g/m*3 20.51 C 4.025 km/h
263 12-07-2020 22:00:00 17.125 C 8.97 g/m*3 17.13 C 3.6 km/h
264 12-07-2020 23:00:00 15.5 C 9.18 g/m*3 15.5 C 2.13333 km/h
265 13-07-2020 00:00:00 14.03333 C 9.01 g/m*3 14.03 C 0.13333 km/h
266 13-07-2020 01:00:00 12.68333 C 8.77 g/m*3 12.68 C 0.26667 km/h
267 13-07-2020 02:00:00 11.8 C 8.61 g/m*3 11.8 C 0 km/h
268 13-07-2020 03:00:00 11.04167 C 8.51 g/m*3 11.04 C 0 km/h
269 13-07-2020 04:00:00 10.31667 C 8.32 g/m*3 10.32 C 0 km/h
270 13-07-2020 05:00:00 9.83333 C 8.27 g/m*3 9.83 C 0 km/h
271 13-07-2020 06:00:00 10.01667 C 8.54 g/m*3 10.02 C 0.13333 km/h
272 13-07-2020 07:00:00 10.58333 C 8.87 g/m*3 10.58 C 0 km/h
273 13-07-2020 08:00:00 11.76667 C 9.58 g/m*3 11.77 C 0.26667 km/h
274 13-07-2020 09:00:00 14.44167 C 10.32 g/m*3 14.44 C 1.86667 km/h
275 13-07-2020 10:00:00 18.2 C 10.63 g/m*3 18.2 C 3.06667 km/h
Sensor: Nr:Datum:Temp:Abs-Feuchte:Windchill:Wind:
Aussen-T/F 276 13-07-2020 11:00:00 21.71667 C 10.01 g/m*3 21.72 C 5.34167 km/h
277 13-07-2020 12:00:00 23.29167 C 8.83 g/m*3 23.29 C 9.675 km/h
278 13-07-2020 13:00:00 24.03333 C 8.66 g/m*3 24.03 C 9.55833 km/h
279 13-07-2020 14:00:00 24.675 C 8.42 g/m*3 24.68 C 10.5 km/h
280 13-07-2020 15:00:00 26.14167 C 8.32 g/m*3 26.14 C 9.00833 km/h
281 13-07-2020 16:00:00 28.475 C 8.49 g/m*3 28.48 C 6.7 km/h
282 13-07-2020 17:00:00 28.575 C 8.23 g/m*3 28.58 C 9.15 km/h
283 13-07-2020 18:00:00 28.725 C 7.95 g/m*3 28.73 C 6.03333 km/h
284 13-07-2020 19:00:00 28 C 7.61 g/m*3 28 C 6.71667 km/h
285 13-07-2020 20:00:00 26.56667 C 7.94 g/m*3 26.57 C 5.61667 km/h
286 13-07-2020 21:00:00 23.84167 C 9.56 g/m*3 23.84 C 1.73333 km/h
287 13-07-2020 22:00:00 20.60833 C 9.65 g/m*3 20.61 C 3.73333 km/h
288 13-07-2020 23:00:00 18.68333 C 9.53 g/m*3 18.68 C 4.26667 km/h
289 14-07-2020 00:00:00 17.575 C 9.47 g/m*3 17.58 C 2.66667 km/h
290 14-07-2020 01:00:00 16.525 C 9.53 g/m*3 16.52 C 1.86667 km/h
291 14-07-2020 02:00:00 15.075 C 9.56 g/m*3 15.08 C 0 km/h
292 14-07-2020 03:00:00 13.75 C 9.39 g/m*3 13.75 C 0 km/h
293 14-07-2020 04:00:00 12.94167 C 9.29 g/m*3 12.94 C 0 km/h
294 14-07-2020 05:00:00 12.4 C 9.22 g/m*3 12.4 C 0 km/h
295 14-07-2020 06:00:00 12.38333 C 9.34 g/m*3 12.38 C 0 km/h
296 14-07-2020 07:00:00 13.76667 C 9.95 g/m*3 13.77 C 0 km/h
297 14-07-2020 08:00:00 14.95 C 10.33 g/m*3 14.95 C 0 km/h
298 14-07-2020 09:00:00 15.875 C 10.83 g/m*3 15.88 C 0 km/h
299 14-07-2020 10:00:00 19.15 C 10.95 g/m*3 19.15 C 0 km/h
300 14-07-2020 11:00:00 22.39167 C 10.47 g/m*3 22.39 C 2.00833 km/h
Sensor: Nr:Datum:Temp:Abs-Feuchte:Windchill:Wind:
Aussen-T/F 301 14-07-2020 12:00:00 23.85 C 9.94 g/m*3 23.85 C 7.11667 km/h
302 14-07-2020 13:00:00 25.65833 C 9.3 g/m*3 25.66 C 9.40833 km/h
303 14-07-2020 14:00:00 25.725 C 9.45 g/m*3 25.73 C 10.075 km/h
304 14-07-2020 15:00:00 25.35 C 9.53 g/m*3 25.35 C 7.53333 km/h
305 14-07-2020 16:00:00 25.64167 C 10.04 g/m*3 25.64 C 9.39167 km/h
306 14-07-2020 17:00:00 24.83333 C 10.64 g/m*3 24.83 C 15.56667 km/h
307 14-07-2020 18:00:00 21.80833 C 10.59 g/m*3 21.81 C 14.36667 km/h
308 14-07-2020 19:00:00 19.96667 C 11.1 g/m*3 19.97 C 8.325 km/h
309 14-07-2020 20:00:00 18.59167 C 12.02 g/m*3 18.59 C 6.83333 km/h
310 14-07-2020 21:00:00 17.44167 C 12.59 g/m*3 17.44 C 1.06667 km/h
311 14-07-2020 22:00:00 16.4 C 12.31 g/m*3 16.4 C 1.86667 km/h
312 14-07-2020 23:00:00 15.84167 C 12.02 g/m*3 15.84 C 1.06667 km/h
313 15-07-2020 00:00:00 15.70833 C 11.91 g/m*3 15.71 C 0 km/h
314 15-07-2020 01:00:00 15.98333 C 11.64 g/m*3 15.98 C 2.53333 km/h
315 15-07-2020 02:00:00 16.15 C 11.64 g/m*3 16.15 C 4.53333 km/h
316 15-07-2020 03:00:00 15.85833 C 11.79 g/m*3 15.86 C 4.55833 km/h
317 15-07-2020 04:00:00 15.475 C 12.02 g/m*3 15.48 C 0.53333 km/h
318 15-07-2020 05:00:00 15.11667 C 12.1 g/m*3 15.12 C 1.33333 km/h
319 15-07-2020 06:00:00 14.83333 C 11.93 g/m*3 14.83 C 2.94167 km/h
320 15-07-2020 07:00:00 14.6 C 11.88 g/m*3 14.6 C 1.06667 km/h
321 15-07-2020 08:00:00 14.80833 C 11.85 g/m*3 14.81 C 5.5 km/h
322 15-07-2020 09:00:00 15.49167 C 11.34 g/m*3 15.49 C 9.68333 km/h
323 15-07-2020 10:00:00 16.30833 C 10.53 g/m*3 16.31 C 11.425 km/h
324 15-07-2020 11:00:00 17.8 C 9.94 g/m*3 17.8 C 12.23333 km/h
325 15-07-2020 12:00:00 18.4 C 9.49 g/m*3 18.4 C 13.69167 km/h
Sensor: Nr:Datum:Temp:Abs-Feuchte:Windchill:Wind:
Aussen-T/F 326 15-07-2020 13:00:00 19.2 C 9.59 g/m*3 19.2 C 12.9 km/h
327 15-07-2020 14:00:00 20.05 C 9.55 g/m*3 20.05 C 13.7 km/h
328 15-07-2020 15:00:00 20.94167 C 9.6 g/m*3 20.94 C 14.23333 km/h
329 15-07-2020 16:00:00 21.59167 C 9.78 g/m*3 21.59 C 14.36667 km/h
330 15-07-2020 17:00:00 21.28333 C 9.65 g/m*3 21.28 C 12.5 km/h
331 15-07-2020 18:00:00 20.6 C 9.37 g/m*3 20.6 C 9.96667 km/h
332 15-07-2020 19:00:00 20.225 C 9.24 g/m*3 20.23 C 9.025 km/h
333 15-07-2020 20:00:00 19.74167 C 9.77 g/m*3 19.74 C 3.875 km/h
334 15-07-2020 21:00:00 17.95833 C 10.44 g/m*3 17.96 C 2.13333 km/h
335 15-07-2020 22:00:00 16.80833 C 10.13 g/m*3 16.81 C 6.425 km/h
336 15-07-2020 23:00:00 16.31667 C 10.32 g/m*3 16.32 C 2.93333 km/h
337 16-07-2020 00:00:00 15.775 C 10.36 g/m*3 15.78 C 0.4 km/h
338 16-07-2020 01:00:00 14.93333 C 10.28 g/m*3 14.93 C 1.73333 km/h
339 16-07-2020 02:00:00 15.31667 C 10.74 g/m*3 15.32 C 0.53333 km/h
340 16-07-2020 03:00:00 15.20833 C 10.98 g/m*3 15.21 C 0 km/h
341 16-07-2020 04:00:00 15.25833 C 11.32 g/m*3 15.26 C 1.2 km/h
342 16-07-2020 05:00:00 14.99167 C 11.56 g/m*3 14.99 C 0.13333 km/h
343 16-07-2020 06:00:00 14.525 C 11.47 g/m*3 14.53 C 3.475 km/h
344 16-07-2020 07:00:00 14.39167 C 11.5 g/m*3 14.39 C 1.2 km/h
345 16-07-2020 08:00:00 15 C 11.86 g/m*3 15 C 4.675 km/h
346 16-07-2020 09:00:00 15.36667 C 12.08 g/m*3 15.37 C 5.21667 km/h
347 16-07-2020 10:00:00 15.88333 C 12.2 g/m*3 15.88 C 3.33333 km/h
348 16-07-2020 11:00:00 16.46667 C 12.38 g/m*3 16.47 C 3.6 km/h
349 16-07-2020 12:00:00 16.51667 C 12.87 g/m*3 16.52 C 4.15 km/h
350 16-07-2020 13:00:00 17.11667 C 13.02 g/m*3 17.12 C 6.425 km/h
Sensor: Nr:Datum:Temp:Abs-Feuchte:Windchill:Wind:
Aussen-T/F 351 16-07-2020 14:00:00 17.18333 C 12.95 g/m*3 17.18 C 7.39167 km/h
352 16-07-2020 15:00:00 17.34167 C 13.11 g/m*3 17.34 C 8.075 km/h
353 16-07-2020 16:00:00 17.14167 C 13.47 g/m*3 17.14 C 3.475 km/h
354 16-07-2020 17:00:00 17.96667 C 13.2 g/m*3 17.97 C 4 km/h
355 16-07-2020 18:00:00 18.20833 C 13.49 g/m*3 18.21 C 0.93333 km/h
356 16-07-2020 19:00:00 17.80833 C 13.5 g/m*3 17.81 C 1.73333 km/h
357 16-07-2020 20:00:00 17.025 C 13.33 g/m*3 17.02 C 2.94167 km/h
358 16-07-2020 21:00:00 15.93333 C 12.36 g/m*3 15.93 C 6.44167 km/h
359 16-07-2020 22:00:00 15.475 C 12.31 g/m*3 15.48 C 3.46667 km/h
360 16-07-2020 23:00:00 15.26667 C 12.33 g/m*3 15.27 C 1.2 km/h
361 17-07-2020 00:00:00 15.14167 C 12.29 g/m*3 15.14 C 1.73333 km/h
362 17-07-2020 01:00:00 15.1 C 12.32 g/m*3 15.1 C 0.8 km/h
363 17-07-2020 02:00:00 15.125 C 12.4 g/m*3 15.13 C 0.53333 km/h
364 17-07-2020 03:00:00 15.16667 C 12.44 g/m*3 15.17 C 1.33333 km/h
365 17-07-2020 04:00:00 15.2 C 12.46 g/m*3 15.2 C 0 km/h
366 17-07-2020 05:00:00 15.2 C 12.46 g/m*3 15.2 C 0 km/h
367 17-07-2020 06:00:00 15.225 C 12.48 g/m*3 15.23 C 1.06667 km/h
368 17-07-2020 07:00:00 15.34167 C 12.57 g/m*3 15.34 C 0.26667 km/h
369 17-07-2020 08:00:00 15.575 C 12.83 g/m*3 15.58 C 0.53333 km/h
370 17-07-2020 09:00:00 15.84167 C 12.96 g/m*3 15.84 C 4.00833 km/h
371 17-07-2020 10:00:00 16.775 C 13.41 g/m*3 16.77 C 7.39167 km/h
372 17-07-2020 11:00:00 18.16667 C 13.46 g/m*3 18.17 C 5.76667 km/h
373 17-07-2020 12:00:00 19.275 C 13.31 g/m*3 19.27 C 3.2 km/h
374 17-07-2020 13:00:00 20.54167 C 12.9 g/m*3 20.54 C 5.35 km/h
375 17-07-2020 14:00:00 21.6 C 12.44 g/m*3 21.6 C 8.33333 km/h
Sensor: Nr:Datum:Temp:Abs-Feuchte:Windchill:Wind:
Aussen-T/F 376 17-07-2020 15:00:00 22.95833 C 12.05 g/m*3 22.96 C 7.50833 km/h
377 17-07-2020 16:00:00 23.825 C 12.78 g/m*3 23.83 C 4.83333 km/h
378 17-07-2020 17:00:00 23.89167 C 11.28 g/m*3 23.89 C 9.93333 km/h
379 17-07-2020 18:00:00 24.35833 C 11.32 g/m*3 24.36 C 10.75833 km/h
380 17-07-2020 19:00:00 24.3 C 11.78 g/m*3 24.3 C 10.225 km/h
381 17-07-2020 20:00:00 22.58333 C 11.82 g/m*3 22.58 C 6.56667 km/h
382 17-07-2020 21:00:00 20.50833 C 12.11 g/m*3 20.51 C 3.2 km/h
383 17-07-2020 22:00:00 17.84167 C 12.2 g/m*3 17.84 C 3.73333 km/h
384 17-07-2020 23:00:00 16.525 C 12.06 g/m*3 16.52 C 4 km/h
385 18-07-2020 00:00:00 15.45833 C 11.67 g/m*3 15.46 C 0.8 km/h
386 18-07-2020 01:00:00 14.375 C 11.27 g/m*3 14.38 C 0 km/h
387 18-07-2020 02:00:00 13.75 C 11.08 g/m*3 13.75 C 0 km/h
388 18-07-2020 03:00:00 13.20833 C 10.8 g/m*3 13.21 C 0 km/h
389 18-07-2020 04:00:00 12.84167 C 10.63 g/m*3 12.84 C 0 km/h
390 18-07-2020 05:00:00 13.10833 C 10.86 g/m*3 13.11 C 0 km/h
391 18-07-2020 06:00:00 13.475 C 11.21 g/m*3 13.48 C 0 km/h
392 18-07-2020 07:00:00 13.8 C 11.37 g/m*3 13.8 C 0 km/h
393 18-07-2020 08:00:00 14.09167 C 11.58 g/m*3 14.09 C 0 km/h
394 18-07-2020 09:00:00 15.55 C 12.56 g/m*3 15.55 C 0 km/h
395 18-07-2020 10:00:00 18.28333 C 13.65 g/m*3 18.28 C 0 km/h
396 18-07-2020 11:00:00 21.925 C 13.09 g/m*3 21.93 C 2.96667 km/h
397 18-07-2020 12:00:00 23 C 12.35 g/m*3 23 C 4.26667 km/h
398 18-07-2020 13:00:00 23.84167 C 12.27 g/m*3 23.84 C 5.225 km/h
399 18-07-2020 14:00:00 24.11667 C 12.96 g/m*3 24.12 C 3.60833 km/h
400 18-07-2020 15:00:00 24.15 C 13.48 g/m*3 24.15 C 1.33333 km/h
Sensor: Nr:Datum:Temp:Abs-Feuchte:Windchill:Wind:
Aussen-T/F 401 18-07-2020 16:00:00 26.45833 C 11.97 g/m*3 26.46 C 5.35 km/h
402 18-07-2020 17:00:00 26.11667 C 11.88 g/m*3 26.12 C 4.81667 km/h
403 18-07-2020 18:00:00 26.73333 C 11.86 g/m*3 26.73 C 4.96667 km/h
404 18-07-2020 19:00:00 27.91667 C 11.62 g/m*3 27.92 C 6.04167 km/h
405 18-07-2020 20:00:00 26.54167 C 12.65 g/m*3 26.54 C 3.6 km/h
406 18-07-2020 21:00:00 21.56667 C 12.52 g/m*3 21.57 C 7.25 km/h
407 18-07-2020 22:00:00 19.65833 C 12.31 g/m*3 19.66 C 6.425 km/h
408 18-07-2020 23:00:00 18.5 C 12.22 g/m*3 18.5 C 2 km/h
409 19-07-2020 00:00:00 17 C 11.96 g/m*3 17 C 0 km/h
410 19-07-2020 01:00:00 15.85 C 11.53 g/m*3 15.85 C 0 km/h
411 19-07-2020 02:00:00 14.975 C 11.18 g/m*3 14.98 C 0 km/h
412 19-07-2020 03:00:00 14.45 C 11.1 g/m*3 14.45 C 0 km/h
413 19-07-2020 04:00:00 14.6 C 11.26 g/m*3 14.6 C 0 km/h
414 19-07-2020 05:00:00 14.76667 C 11.45 g/m*3 14.77 C 0 km/h
415 19-07-2020 06:00:00 15.23333 C 11.74 g/m*3 15.23 C 0 km/h
416 19-07-2020 07:00:00 15.89167 C 12.13 g/m*3 15.89 C 0 km/h
417 19-07-2020 08:00:00 16.66667 C 12.61 g/m*3 16.67 C 0 km/h
418 19-07-2020 09:00:00 18.80833 C 13.66 g/m*3 18.81 C 0 km/h
419 19-07-2020 10:00:00 21.39167 C 13.77 g/m*3 21.39 C 0.53333 km/h
420 19-07-2020 11:00:00 25.28333 C 12.06 g/m*3 25.28 C 8.31667 km/h
421 19-07-2020 12:00:00 26.88333 C 11.49 g/m*3 26.88 C 11.69167 km/h
422 19-07-2020 13:00:00 27.80833 C 11.44 g/m*3 27.81 C 10.225 km/h
423 19-07-2020 14:00:00 28.33333 C 10.78 g/m*3 28.33 C 12.9 km/h
424 19-07-2020 15:00:00 29.80833 C 10.23 g/m*3 29.81 C 10.35833 km/h
425 19-07-2020 16:00:00 29.775 C 10.68 g/m*3 29.78 C 9.025 km/h
Sensor: Nr:Datum:Temp:Abs-Feuchte:Windchill:Wind:
Aussen-T/F 426 19-07-2020 17:00:00 31.25 C 10.14 g/m*3 31.25 C 11.41667 km/h
427 19-07-2020 18:00:00 30.59167 C 10.41 g/m*3 30.59 C 5.75833 km/h
428 19-07-2020 19:00:00 29.16667 C 12.66 g/m*3 29.17 C 2.8 km/h
429 19-07-2020 20:00:00 27.55 C 11.89 g/m*3 27.55 C 5.75833 km/h
430 19-07-2020 21:00:00 24.98333 C 11.92 g/m*3 24.98 C 3.875 km/h
431 19-07-2020 22:00:00 22.81667 C 10.93 g/m*3 22.82 C 5.075 km/h
432 19-07-2020 23:00:00 21.425 C 10.26 g/m*3 21.43 C 4.95 km/h
433 20-07-2020 00:00:00 19.93333 C 10.13 g/m*3 19.93 C 3.2 km/h
434 20-07-2020 01:00:00 18.44167 C 10.38 g/m*3 18.44 C 3.2 km/h
435 20-07-2020 02:00:00 18.2 C 11.2 g/m*3 18.2 C 3.875 km/h
436 20-07-2020 03:00:00 17.625 C 11.77 g/m*3 17.63 C 1.86667 km/h
437 20-07-2020 04:00:00 16.45833 C 11.84 g/m*3 16.46 C 0 km/h
438 20-07-2020 05:00:00 15.90833 C 11.97 g/m*3 15.91 C 0.66667 km/h
439 20-07-2020 06:00:00 16.38333 C 12.78 g/m*3 16.38 C 2.8 km/h
440 20-07-2020 07:00:00 17.33333 C 13.37 g/m*3 17.33 C 0.66667 km/h
441 20-07-2020 08:00:00 17.94167 C 13.44 g/m*3 17.94 C 6.58333 km/h
442 20-07-2020 09:00:00 17.74167 C 13.31 g/m*3 17.74 C 5.09167 km/h
443 20-07-2020 10:00:00 17.80833 C 13.08 g/m*3 17.81 C 1.46667 km/h
444 20-07-2020 11:00:00 19.15 C 13.21 g/m*3 19.15 C 6.975 km/h
445 20-07-2020 12:00:00 20.01667 C 12.84 g/m*3 20.02 C 11.43333 km/h
446 20-07-2020 13:00:00 20.975 C 12.77 g/m*3 20.98 C 9.425 km/h
447 20-07-2020 14:00:00 21.65833 C 12.62 g/m*3 21.66 C 12.1 km/h
448 20-07-2020 15:00:00 22.53333 C 12.42 g/m*3 22.53 C 11.83333 km/h
449 20-07-2020 16:00:00 23.25833 C 12.29 g/m*3 23.26 C 11.83333 km/h
450 20-07-2020 17:00:00 23.925 C 11.83 g/m*3 23.93 C 12.5 km/h
Sensor: Nr:Datum:Temp:Abs-Feuchte:Windchill:Wind:
Aussen-T/F 451 20-07-2020 18:00:00 23.83333 C 11.35 g/m*3 23.83 C 13.03333 km/h
452 20-07-2020 19:00:00 22.625 C 10.8 g/m*3 22.63 C 10.89167 km/h
453 20-07-2020 20:00:00 21.40833 C 10.1 g/m*3 21.41 C 8.74167 km/h
454 20-07-2020 21:00:00 19.76667 C 10.11 g/m*3 19.77 C 1.33333 km/h
455 20-07-2020 22:00:00 17.24167 C 10.01 g/m*3 17.24 C 3.2 km/h
456 20-07-2020 23:00:00 16.08333 C 9.96 g/m*3 16.08 C 0.93333 km/h
457 21-07-2020 00:00:00 14.75 C 9.53 g/m*3 14.75 C 3.33333 km/h
458 21-07-2020 01:00:00 13.58333 C 9.3 g/m*3 13.58 C 2.26667 km/h
459 21-07-2020 02:00:00 13.45833 C 9.18 g/m*3 13.46 C 3.33333 km/h
460 21-07-2020 03:00:00 13.15833 C 9.16 g/m*3 13.16 C 3.46667 km/h
461 21-07-2020 04:00:00 12.81667 C 9.09 g/m*3 12.82 C 1.46667 km/h
462 21-07-2020 05:00:00 12.65833 C 8.99 g/m*3 12.66 C 2.8 km/h
463 21-07-2020 06:00:00 11.625 C 8.75 g/m*3 11.63 C 2.4 km/h
464 21-07-2020 07:00:00 11.675 C 8.99 g/m*3 11.68 C 2.66667 km/h
465 21-07-2020 08:00:00 13.38333 C 9.45 g/m*3 13.38 C 3.2 km/h
466 21-07-2020 09:00:00 14.85833 C 9.92 g/m*3 14.86 C 4.13333 km/h
467 21-07-2020 10:00:00 17.225 C 10.3 g/m*3 17.23 C 5.35 km/h
468 21-07-2020 11:00:00 19.325 C 9.8 g/m*3 19.33 C 11.025 km/h
469 21-07-2020 12:00:00 20.26667 C 9.7 g/m*3 20.27 C 11.69167 km/h
470 21-07-2020 13:00:00 20.68333 C 8.92 g/m*3 20.68 C 12.23333 km/h
471 21-07-2020 14:00:00 21.51667 C 8.76 g/m*3 21.52 C 12.625 km/h
472 21-07-2020 15:00:00 23.01667 C 8.8 g/m*3 23.02 C 13.83333 km/h
473 21-07-2020 16:00:00 24.40833 C 8.72 g/m*3 24.41 C 13.16667 km/h
474 21-07-2020 17:00:00 24.85833 C 8.32 g/m*3 24.86 C 12.9 km/h
475 21-07-2020 18:00:00 24.80833 C 8.24 g/m*3 24.81 C 12.1 km/h
Sensor: Nr:Datum:Temp:Abs-Feuchte:Windchill:Wind:
Aussen-T/F 476 21-07-2020 19:00:00 23.59167 C 7.85 g/m*3 23.59 C 10.89167 km/h
477 21-07-2020 20:00:00 22.09167 C 7.61 g/m*3 22.09 C 7.675 km/h
478 21-07-2020 21:00:00 18.99167 C 8.14 g/m*3 18.99 C 2.8 km/h
479 21-07-2020 22:00:00 15.925 C 8.23 g/m*3 15.93 C 5.475 km/h
480 21-07-2020 23:00:00 14.85833 C 8.48 g/m*3 14.86 C 3.06667 km/h
481 22-07-2020 00:00:00 13.425 C 8.52 g/m*3 13.43 C 0 km/h
482 22-07-2020 01:00:00 12.00833 C 8.33 g/m*3 12.01 C 0 km/h
483 22-07-2020 02:00:00 11.025 C 8.15 g/m*3 11.03 C 0 km/h
484 22-07-2020 03:00:00 10.30833 C 8.07 g/m*3 10.31 C 0 km/h
485 22-07-2020 04:00:00 9.65833 C 7.99 g/m*3 9.66 C 0 km/h
486 22-07-2020 05:00:00 9.24167 C 7.95 g/m*3 9.24 C 0 km/h
487 22-07-2020 06:00:00 9.14167 C 8.08 g/m*3 9.14 C 0 km/h
488 22-07-2020 07:00:00 9.525 C 8.4 g/m*3 9.53 C 0 km/h
489 22-07-2020 08:00:00 10.925 C 9.25 g/m*3 10.93 C 0 km/h
490 22-07-2020 09:00:00 12.79167 C 9.83 g/m*3 12.79 C 1.06667 km/h
491 22-07-2020 10:00:00 16.1 C 9.95 g/m*3 16.1 C 3.2 km/h
492 22-07-2020 11:00:00 19.21667 C 9.06 g/m*3 19.22 C 4.41667 km/h
493 22-07-2020 12:00:00 20.78333 C 8.05 g/m*3 20.78 C 7.38333 km/h
494 22-07-2020 13:00:00 21.925 C 7.7 g/m*3 21.93 C 8.74167 km/h
495 22-07-2020 14:00:00 23.10833 C 7.67 g/m*3 23.11 C 8.325 km/h
496 22-07-2020 15:00:00 24.5 C 8.04 g/m*3 24.5 C 10.75 km/h
497 22-07-2020 16:00:00 25.99167 C 8.72 g/m*3 25.99 C 12.1 km/h
498 22-07-2020 17:00:00 25.66667 C 8.58 g/m*3 25.67 C 12.76667 km/h
499 22-07-2020 18:00:00 24.83333 C 8.7 g/m*3 24.83 C 12.36667 km/h
500 22-07-2020 19:00:00 23.825 C 8.92 g/m*3 23.83 C 11.7 km/h
Sensor: Nr:Datum:Temp:Abs-Feuchte:Windchill:Wind:
Aussen-T/F 501 22-07-2020 20:00:00 22.64167 C 8.96 g/m*3 22.64 C 10.08333 km/h
502 22-07-2020 21:00:00 20.56667 C 9.07 g/m*3 20.57 C 3.61667 km/h
503 22-07-2020 22:00:00 17.64167 C 9.01 g/m*3 17.64 C 4.13333 km/h
504 22-07-2020 23:00:00 16.33333 C 8.93 g/m*3 16.33 C 2.8 km/h
505 23-07-2020 00:00:00 15.325 C 8.99 g/m*3 15.33 C 2 km/h
506 23-07-2020 01:00:00 14.78333 C 9.05 g/m*3 14.78 C 2.66667 km/h
507 23-07-2020 02:00:00 13.79167 C 8.96 g/m*3 13.79 C 1.2 km/h
508 23-07-2020 03:00:00 13.33333 C 8.9 g/m*3 13.33 C 0.53333 km/h
509 23-07-2020 04:00:00 12.30833 C 8.7 g/m*3 12.31 C 0 km/h
510 23-07-2020 05:00:00 11.1 C 8.48 g/m*3 11.1 C 0 km/h
511 23-07-2020 06:00:00 10.625 C 8.53 g/m*3 10.63 C 0.13333 km/h
512 23-07-2020 07:00:00 10.725 C 8.75 g/m*3 10.73 C 0 km/h
513 23-07-2020 08:00:00 11.66667 C 9.29 g/m*3 11.67 C 0 km/h
514 23-07-2020 09:00:00 13.79167 C 9.81 g/m*3 13.79 C 0.66667 km/h
515 23-07-2020 10:00:00 17.15833 C 9.63 g/m*3 17.16 C 3.2 km/h
516 23-07-2020 11:00:00 20.01667 C 9.08 g/m*3 20.02 C 7.24167 km/h
517 23-07-2020 12:00:00 21.24167 C 8.61 g/m*3 21.24 C 9.525 km/h
518 23-07-2020 13:00:00 22.33333 C 8.28 g/m*3 22.33 C 9.26667 km/h
519 23-07-2020 14:00:00 23.6 C 8.29 g/m*3 23.6 C 9.26667 km/h
520 23-07-2020 15:00:00 25.15833 C 8.48 g/m*3 25.16 C 9.275 km/h
521 23-07-2020 16:00:00 26.99167 C 8.68 g/m*3 26.99 C 7.93333 km/h
522 23-07-2020 17:00:00 27.95 C 8.81 g/m*3 27.95 C 7.23333 km/h
523 23-07-2020 18:00:00 27.975 C 8.8 g/m*3 27.98 C 6.44167 km/h
524 23-07-2020 19:00:00 27.025 C 9.02 g/m*3 27.03 C 3.2 km/h
525 23-07-2020 20:00:00 23.73333 C 10.18 g/m*3 23.73 C 3.2 km/h
Sensor: Nr:Datum:Temp:Abs-Feuchte:Windchill:Wind:
Aussen-T/F 526 23-07-2020 21:00:00 21.56667 C 9.91 g/m*3 21.57 C 4.53333 km/h
527 23-07-2020 22:00:00 20.65 C 10.4 g/m*3 20.65 C 2.13333 km/h
528 23-07-2020 23:00:00 19.45833 C 10.51 g/m*3 19.46 C 0 km/h
529 24-07-2020 00:00:00 18.75 C 10.5 g/m*3 18.75 C 0 km/h
530 24-07-2020 01:00:00 18.225 C 10.36 g/m*3 18.23 C 1.6 km/h
531 24-07-2020 02:00:00 17.46667 C 10.17 g/m*3 17.47 C 0.66667 km/h
532 24-07-2020 03:00:00 16.41667 C 10.05 g/m*3 16.42 C 0.4 km/h
533 24-07-2020 04:00:00 16.34167 C 10.22 g/m*3 16.34 C 2.54167 km/h
534 24-07-2020 05:00:00 16.44167 C 10.42 g/m*3 16.44 C 1.06667 km/h
535 24-07-2020 06:00:00 15.79167 C 10.38 g/m*3 15.79 C 0.13333 km/h
536 24-07-2020 07:00:00 17.04167 C 10.84 g/m*3 17.04 C 4.13333 km/h
537 24-07-2020 08:00:00 18.43333 C 10.98 g/m*3 18.43 C 8.05833 km/h
538 24-07-2020 09:00:00 20.34167 C 10.95 g/m*3 20.34 C 4.53333 km/h
539 24-07-2020 10:00:00 22.28333 C 10.55 g/m*3 22.28 C 2.66667 km/h
540 24-07-2020 11:00:00 23.28333 C 10.37 g/m*3 23.28 C 6.56667 km/h
541 24-07-2020 12:00:00 24.59167 C 10.01 g/m*3 24.59 C 14.75833 km/h
542 24-07-2020 13:00:00 25.65 C 9.63 g/m*3 25.65 C 12.35833 km/h
543 24-07-2020 14:00:00 25.55833 C 9.82 g/m*3 25.56 C 10.09167 km/h
544 24-07-2020 15:00:00 24.875 C 10.1 g/m*3 24.88 C 9.54167 km/h
545 24-07-2020 16:00:00 24.85 C 10.46 g/m*3 24.85 C 8.6 km/h
546 24-07-2020 17:00:00 25.76667 C 10.49 g/m*3 25.77 C 7.65833 km/h
547 24-07-2020 18:00:00 25.575 C 10.94 g/m*3 25.58 C 9.69167 km/h
548 24-07-2020 19:00:00 24.25 C 11.68 g/m*3 24.25 C 9.26667 km/h
549 24-07-2020 20:00:00 23.95 C 11.99 g/m*3 23.95 C 3.46667 km/h
550 24-07-2020 21:00:00 21.13333 C 11.89 g/m*3 21.13 C 5.74167 km/h
Sensor: Nr:Datum:Temp:Abs-Feuchte:Windchill:Wind:
Aussen-T/F 551 24-07-2020 22:00:00 20.85 C 12.15 g/m*3 20.85 C 2.93333 km/h
552 24-07-2020 23:00:00 21.175 C 12.71 g/m*3 21.18 C 6.56667 km/h
553 25-07-2020 00:00:00 19.96667 C 12.98 g/m*3 19.97 C 0.66667 km/h
554 25-07-2020 01:00:00 18.9 C 12.78 g/m*3 18.9 C 2.26667 km/h
555 25-07-2020 02:00:00 17.68333 C 12.4 g/m*3 17.68 C 3.73333 km/h
556 25-07-2020 03:00:00 16.475 C 11.88 g/m*3 16.48 C 3.2 km/h
557 25-07-2020 04:00:00 15.28333 C 11.37 g/m*3 15.28 C 0.66667 km/h
558 25-07-2020 05:00:00 14.55 C 11.19 g/m*3 14.55 C 1.46667 km/h
559 25-07-2020 06:00:00 14.675 C 11.45 g/m*3 14.68 C 1.2 km/h
560 25-07-2020 07:00:00 15.84167 C 12.17 g/m*3 15.84 C 1.86667 km/h
561 25-07-2020 08:00:00 17.48333 C 12.64 g/m*3 17.48 C 2.13333 km/h
562 25-07-2020 09:00:00 18.63333 C 13.04 g/m*3 18.63 C 2.53333 km/h
563 25-07-2020 10:00:00 20.68333 C 13.2 g/m*3 20.68 C 8.75833 km/h
564 25-07-2020 11:00:00 22.55833 C 12.68 g/m*3 22.56 C 12.63333 km/h
565 25-07-2020 12:00:00 24.20833 C 12.25 g/m*3 24.21 C 13.15833 km/h
566 25-07-2020 13:00:00 25.34167 C 11.99 g/m*3 25.34 C 14.49167 km/h
567 25-07-2020 14:00:00 25.33333 C 11.57 g/m*3 25.33 C 15.16667 km/h
568 25-07-2020 15:00:00 25.84167 C 11.54 g/m*3 25.84 C 12.35833 km/h
569 25-07-2020 16:00:00 26.85 C 11.04 g/m*3 26.85 C 10.9 km/h
570 25-07-2020 17:00:00 25.85 C 11 g/m*3 25.85 C 8.2 km/h
571 25-07-2020 18:00:00 25.63333 C 11.79 g/m*3 25.63 C 3.875 km/h
572 25-07-2020 19:00:00 26.1 C 11.87 g/m*3 26.1 C 5.36667 km/h
573 25-07-2020 20:00:00 24.28333 C 12.51 g/m*3 24.28 C 4.66667 km/h
574 25-07-2020 21:00:00 22.00833 C 12.14 g/m*3 22.01 C 6.00833 km/h
575 25-07-2020 22:00:00 20.53333 C 11.9 g/m*3 20.53 C 4.4 km/h
Sensor: Nr:Datum:Temp:Abs-Feuchte:Windchill:Wind:
Aussen-T/F 576 25-07-2020 23:00:00 19.65833 C 12.21 g/m*3 19.66 C 0.8 km/h
577 26-07-2020 00:00:00 19.16667 C 12.43 g/m*3 19.17 C 0 km/h
578 26-07-2020 01:00:00 19.60833 C 12.78 g/m*3 19.61 C 5.24167 km/h
579 26-07-2020 02:00:00 19.34167 C 13.84 g/m*3 19.34 C 7.64167 km/h
580 26-07-2020 03:00:00 18.2 C 13.96 g/m*3 18.2 C 4.00833 km/h
581 26-07-2020 04:00:00 17.60833 C 13.83 g/m*3 17.61 C 3.06667 km/h
582 26-07-2020 05:00:00 17.21667 C 13.71 g/m*3 17.22 C 2.4 km/h
583 26-07-2020 06:00:00 17.13333 C 13.71 g/m*3 17.13 C 2.4 km/h
584 26-07-2020 07:00:00 18.36667 C 13.98 g/m*3 18.37 C 7.93333 km/h
585 26-07-2020 08:00:00 19.59167 C 13.79 g/m*3 19.59 C 13.15833 km/h
586 26-07-2020 09:00:00 20.6 C 13.98 g/m*3 20.6 C 11.95833 km/h
587 26-07-2020 10:00:00 21.18333 C 13.56 g/m*3 21.18 C 15.03333 km/h
588 26-07-2020 11:00:00 22.11667 C 13.76 g/m*3 22.12 C 12.5 km/h
589 26-07-2020 12:00:00 21.15833 C 14.04 g/m*3 21.16 C 14.08333 km/h
590 26-07-2020 13:00:00 20.85 C 13.77 g/m*3 20.85 C 11.025 km/h
591 26-07-2020 14:00:00 23.59167 C 11.51 g/m*3 23.59 C 14.76667 km/h
592 26-07-2020 15:00:00 24.50833 C 11.16 g/m*3 24.51 C 15.43333 km/h
593 26-07-2020 16:00:00 25.625 C 10.67 g/m*3 25.63 C 13.56667 km/h
594 26-07-2020 17:00:00 26.3 C 10.25 g/m*3 26.3 C 13.96667 km/h
595 26-07-2020 18:00:00 26.1 C 10.24 g/m*3 26.1 C 13.56667 km/h
596 26-07-2020 19:00:00 23.94167 C 10.52 g/m*3 23.94 C 13.43333 km/h
597 26-07-2020 20:00:00 22.14167 C 10.96 g/m*3 22.14 C 3.88333 km/h
598 26-07-2020 21:00:00 20.58333 C 11.41 g/m*3 20.58 C 1.33333 km/h
599 26-07-2020 22:00:00 18.76667 C 11.16 g/m*3 18.77 C 3.86667 km/h
600 26-07-2020 23:00:00 17.34167 C 11.16 g/m*3 17.34 C 1.06667 km/h
Sensor: Nr:Datum:Temp:Abs-Feuchte:Windchill:Wind:
Aussen-T/F 601 27-07-2020 00:00:00 16.64167 C 11.32 g/m*3 16.64 C 0 km/h
602 27-07-2020 01:00:00 15.41667 C 10.75 g/m*3 15.42 C 0 km/h
603 27-07-2020 02:00:00 14.35833 C 10.49 g/m*3 14.36 C 0 km/h
604 27-07-2020 03:00:00 13.5 C 10.23 g/m*3 13.5 C 0 km/h
605 27-07-2020 04:00:00 12.85 C 10.05 g/m*3 12.85 C 0 km/h
606 27-07-2020 05:00:00 12.78333 C 10.29 g/m*3 12.78 C 0 km/h
607 27-07-2020 06:00:00 12.86667 C 10.38 g/m*3 12.87 C 0 km/h
608 27-07-2020 07:00:00 13.64167 C 10.91 g/m*3 13.64 C 0.4 km/h
609 27-07-2020 08:00:00 15.39167 C 11.63 g/m*3 15.39 C 0.13333 km/h
610 27-07-2020 09:00:00 17.2 C 12.08 g/m*3 17.2 C 1.2 km/h
611 27-07-2020 10:00:00 19.9 C 13.07 g/m*3 19.9 C 1.86667 km/h
612 27-07-2020 11:00:00 22.79167 C 13.15 g/m*3 22.79 C 2.93333 km/h
613 27-07-2020 12:00:00 24.79167 C 12.29 g/m*3 24.79 C 8.85833 km/h
614 27-07-2020 13:00:00 26.49167 C 10.93 g/m*3 26.49 C 11.425 km/h
615 27-07-2020 14:00:00 27.43333 C 11.86 g/m*3 27.43 C 10.75 km/h
616 27-07-2020 15:00:00 29.06667 C 11.53 g/m*3 29.07 C 9.95 km/h
617 27-07-2020 16:00:00 28.9 C 10.69 g/m*3 28.9 C 8.85833 km/h
618 27-07-2020 17:00:00 31.65 C 10.11 g/m*3 31.65 C 14.625 km/h
619 27-07-2020 18:00:00 31.275 C 10.1 g/m*3 31.28 C 10.48333 km/h
620 27-07-2020 19:00:00 30.54167 C 11.81 g/m*3 30.54 C 2.66667 km/h
621 27-07-2020 20:00:00 28.575 C 12.44 g/m*3 28.58 C 5.475 km/h
622 27-07-2020 21:00:00 26.09167 C 11.87 g/m*3 26.09 C 6.54167 km/h
623 27-07-2020 22:00:00 24.54167 C 11.7 g/m*3 24.54 C 3.20833 km/h
624 27-07-2020 23:00:00 23.19167 C 11.97 g/m*3 23.19 C 0 km/h
625 28-07-2020 00:00:00 21.54167 C 11.58 g/m*3 21.54 C 0 km/h
Sensor: Nr:Datum:Temp:Abs-Feuchte:Windchill:Wind:
Aussen-T/F 626 28-07-2020 01:00:00 21.90833 C 11.74 g/m*3 21.91 C 0 km/h
627 28-07-2020 02:00:00 22.19167 C 11.76 g/m*3 22.19 C 2.26667 km/h
628 28-07-2020 03:00:00 21.16667 C 11.56 g/m*3 21.17 C 1.33333 km/h
629 28-07-2020 04:00:00 20.19167 C 11.49 g/m*3 20.19 C 4.54167 km/h
630 28-07-2020 05:00:00 20.075 C 11.17 g/m*3 20.08 C 2.55 km/h
631 28-07-2020 06:00:00 19.7 C 11.65 g/m*3 19.7 C 0.26667 km/h
632 28-07-2020 07:00:00 20.35 C 12.1 g/m*3 20.35 C 2.94167 km/h
633 28-07-2020 08:00:00 21.71667 C 12.89 g/m*3 21.72 C 8.18333 km/h
634 28-07-2020 09:00:00 22.54167 C 13.35 g/m*3 22.54 C 12.9 km/h
635 28-07-2020 10:00:00 23.03333 C 12.6 g/m*3 23.03 C 16.1 km/h
636 28-07-2020 11:00:00 23.83333 C 12.19 g/m*3 23.83 C 15.83333 km/h
637 28-07-2020 12:00:00 24.425 C 11.83 g/m*3 24.43 C 16.1 km/h
638 28-07-2020 13:00:00 25.56667 C 11.07 g/m*3 25.57 C 17.96667 km/h
639 28-07-2020 14:00:00 25.93333 C 10.63 g/m*3 25.93 C 15.43333 km/h
640 28-07-2020 15:00:00 26.26667 C 10.11 g/m*3 26.27 C 13.95833 km/h
641 28-07-2020 16:00:00 27.025 C 10.14 g/m*3 27.03 C 13.96667 km/h
642 28-07-2020 17:00:00 27.4 C 9.71 g/m*3 27.4 C 15.96667 km/h
643 28-07-2020 18:00:00 27.275 C 9.56 g/m*3 27.28 C 13.56667 km/h
644 28-07-2020 19:00:00 25.625 C 9.24 g/m*3 25.63 C 15.7 km/h
645 28-07-2020 20:00:00 23.18333 C 8.9 g/m*3 23.18 C 11.56667 km/h
646 28-07-2020 21:00:00 21.01667 C 8.95 g/m*3 21.02 C 5.89167 km/h
647 28-07-2020 22:00:00 19.30833 C 9.04 g/m*3 19.31 C 4.69167 km/h
648 28-07-2020 23:00:00 18.66667 C 9.28 g/m*3 18.67 C 3.21667 km/h
649 29-07-2020 00:00:00 16.475 C 9.3 g/m*3 16.48 C 1.86667 km/h
650 29-07-2020 01:00:00 15.94167 C 9.93 g/m*3 15.94 C 3.875 km/h
Sensor: Nr:Datum:Temp:Abs-Feuchte:Windchill:Wind:
Aussen-T/F 651 29-07-2020 02:00:00 15.18333 C 9.85 g/m*3 15.18 C 3.6 km/h
652 29-07-2020 03:00:00 13.625 C 9.5 g/m*3 13.63 C 0 km/h
653 29-07-2020 04:00:00 12.425 C 9.33 g/m*3 12.43 C 1.33333 km/h
654 29-07-2020 05:00:00 11.70833 C 9.16 g/m*3 11.71 C 0.13333 km/h
655 29-07-2020 06:00:00 11.7 C 9.23 g/m*3 11.7 C 1.86667 km/h
656 29-07-2020 07:00:00 12.03333 C 9.37 g/m*3 12.03 C 3.46667 km/h
657 29-07-2020 08:00:00 13.1 C 9.79 g/m*3 13.1 C 2.53333 km/h
658 29-07-2020 09:00:00 15.5 C 10.13 g/m*3 15.5 C 3.86667 km/h
659 29-07-2020 10:00:00 18.125 C 10.03 g/m*3 18.13 C 4.95 km/h
660 29-07-2020 11:00:00 20.34167 C 9.99 g/m*3 20.34 C 8.85833 km/h
661 29-07-2020 12:00:00 21.3 C 9.69 g/m*3 21.3 C 10.225 km/h
662 29-07-2020 13:00:00 22.13333 C 9.24 g/m*3 22.13 C 9.54167 km/h
663 29-07-2020 14:00:00 23.725 C 8.96 g/m*3 23.73 C 8.46667 km/h
664 29-07-2020 15:00:00 25.4 C 8.95 g/m*3 25.4 C 8.875 km/h
665 29-07-2020 16:00:00 26.7 C 9.13 g/m*3 26.7 C 11.83333 km/h
666 29-07-2020 17:00:00 26.99167 C 9.11 g/m*3 26.99 C 10.9 km/h
667 29-07-2020 18:00:00 26.90833 C 9.22 g/m*3 26.91 C 11.03333 km/h
668 29-07-2020 19:00:00 25.675 C 9.44 g/m*3 25.68 C 10.49167 km/h
669 29-07-2020 20:00:00 23.55 C 9.46 g/m*3 23.55 C 10.89167 km/h
670 29-07-2020 21:00:00 21.25 C 9.57 g/m*3 21.25 C 2.54167 km/h
671 29-07-2020 22:00:00 18.10833 C 9.44 g/m*3 18.11 C 0.13333 km/h
672 29-07-2020 23:00:00 16.8 C 9.5 g/m*3 16.8 C 0 km/h
673 30-07-2020 00:00:00 15.30833 C 9.46 g/m*3 15.31 C 0 km/h
674 30-07-2020 01:00:00 14.05833 C 9.33 g/m*3 14.06 C 0 km/h
675 30-07-2020 02:00:00 13.23333 C 9.21 g/m*3 13.23 C 0 km/h
Sensor: Nr:Datum:Temp:Abs-Feuchte:Windchill:Wind:
Aussen-T/F 676 30-07-2020 03:00:00 12.50833 C 9.11 g/m*3 12.51 C 0 km/h
677 30-07-2020 04:00:00 11.88333 C 9 g/m*3 11.88 C 0 km/h
678 30-07-2020 05:00:00 11.425 C 8.94 g/m*3 11.43 C 0 km/h
679 30-07-2020 06:00:00 11.18333 C 8.96 g/m*3 11.18 C 0 km/h
680 30-07-2020 07:00:00 11.65833 C 9.34 g/m*3 11.66 C 0 km/h
681 30-07-2020 08:00:00 12.58333 C 9.83 g/m*3 12.58 C 0 km/h
682 30-07-2020 09:00:00 14.55833 C 10.57 g/m*3 14.56 C 0.13333 km/h
683 30-07-2020 10:00:00 18.74167 C 10.87 g/m*3 18.74 C 3.74167 km/h
684 30-07-2020 11:00:00 22.01667 C 10.68 g/m*3 22.02 C 4.80833 km/h
685 30-07-2020 12:00:00 23.54167 C 10.4 g/m*3 23.54 C 7.38333 km/h
686 30-07-2020 13:00:00 24.925 C 9.78 g/m*3 24.93 C 8.05 km/h
687 30-07-2020 14:00:00 26.43333 C 9.56 g/m*3 26.43 C 8.86667 km/h
688 30-07-2020 15:00:00 28.15833 C 9.58 g/m*3 28.16 C 9.95 km/h
689 30-07-2020 16:00:00 30.00833 C 8.9 g/m*3 30.01 C 8.475 km/h
690 30-07-2020 17:00:00 31.15833 C 8.77 g/m*3 31.16 C 6.95833 km/h
691 30-07-2020 18:00:00 31.74167 C 8.69 g/m*3 31.74 C 7.79167 km/h
692 30-07-2020 19:00:00 30.46667 C 8.63 g/m*3 30.47 C 8.61667 km/h
693 30-07-2020 20:00:00 28.75 C 9.52 g/m*3 28.75 C 3.60833 km/h
694 30-07-2020 21:00:00 24.4 C 9.9 g/m*3 24.4 C 4.26667 km/h
695 30-07-2020 22:00:00 21.8 C 9.59 g/m*3 21.8 C 2.8 km/h
696 30-07-2020 23:00:00 19.8 C 9.76 g/m*3 19.8 C 0.4 km/h
697 31-07-2020 00:00:00 18.05833 C 9.58 g/m*3 18.06 C 0 km/h
698 31-07-2020 01:00:00 16.85833 C 9.48 g/m*3 16.86 C 0 km/h
699 31-07-2020 02:00:00 15.76667 C 9.46 g/m*3 15.77 C 0 km/h
700 31-07-2020 03:00:00 14.99167 C 9.52 g/m*3 14.99 C 0 km/h
Sensor: Nr:Datum:Temp:Abs-Feuchte:Windchill:Wind:
Aussen-T/F 701 31-07-2020 04:00:00 14.15 C 9.54 g/m*3 14.15 C 0 km/h
702 31-07-2020 05:00:00 13.54167 C 9.54 g/m*3 13.54 C 0 km/h
703 31-07-2020 06:00:00 13.23333 C 9.63 g/m*3 13.23 C 0.13333 km/h
704 31-07-2020 07:00:00 13.45833 C 9.9 g/m*3 13.46 C 0 km/h
705 31-07-2020 08:00:00 14.39167 C 10.42 g/m*3 14.39 C 0.13333 km/h
706 31-07-2020 09:00:00 16.38333 C 11.11 g/m*3 16.38 C 0.4 km/h
707 31-07-2020 10:00:00 20.825 C 11.3 g/m*3 20.83 C 2.13333 km/h
708 31-07-2020 11:00:00 25.40833 C 11.05 g/m*3 25.41 C 5.90833 km/h
709 31-07-2020 12:00:00 29.4 C 10.23 g/m*3 29.4 C 14.76667 km/h
710 31-07-2020 13:00:00 30.825 C 10.49 g/m*3 30.83 C 10.1 km/h
711 31-07-2020 14:00:00 32.25833 C 10.58 g/m*3 32.26 C 8.34167 km/h
712 31-07-2020 15:00:00 34.3 C 10.32 g/m*3 34.3 C 8.46667 km/h
713 31-07-2020 16:00:00 36.68333 C 10.35 g/m*3 36.68 C 7.51667 km/h
714 31-07-2020 17:00:00 37.475 C 10.25 g/m*3 37.48 C 8.06667 km/h
715 31-07-2020 18:00:00 37.51667 C 9.71 g/m*3 37.52 C 8.2 km/h
716 31-07-2020 19:00:00 36.10833 C 10.05 g/m*3 36.11 C 5.35 km/h
717 31-07-2020 20:00:00 33.38333 C 11.38 g/m*3 33.38 C 3.73333 km/h
718 31-07-2020 21:00:00 27.14167 C 11.22 g/m*3 27.14 C 7.39167 km/h
719 31-07-2020 22:00:00 24.775 C 11.02 g/m*3 24.78 C 3.74167 km/h
720 31-07-2020 23:00:00 22.90833 C 11.18 g/m*3 22.91 C 1.73333 km/h

Maximal/Minimal-Werte vom 23.02.2003 - 03.08.2020

Sensor Min Max Avg
Temp
(Aussen-T/F)
-16.4 °C
20-12-2009  01:30:01
40.4 °C
25-07-2019  16:20:00
11.23 °C

Die Daten stammen von einer Davis Vantage Pro 2 Wetter-Station und werden unter Linux mit der Software wview2wettercgi und aufbereitet. Alle Angaben erfolgen ohne Gewähr für ihre Vollständigkeit oder Richtigkeit.
Kontakt: Rainer Krienke krienke@uni-koblenz.de . Meine Webseiten an der Uni Koblenz oder privat.
Version: $Revision: 0.78 $